Flag for Liechtenstein Weather past 2 weeks in Vaduz, Liechtenstein

Now
53 °F

Scattered clouds.


Feels Like: 48 °F
Forecast: 38 / 44 °F
Wind: 15 mph from South

Location: Vaduz

Current Time: Mar 31, 2015 at 12:20:37 PM

Latest Report: Mar 31, 2015 at 11:00 AM


Visibility: 7 mi

Pressure: 29.75 "Hg

Humidity: 62%

Dew point: 40 °F

Location of VaduzLocation

Historic Weather in Vaduz — Graph

°F

Vaduz temperature yesterday

Maximum temperature yesterday: 56 °F (at 4:00 PM)
Minimum temperature yesterday: 47 °F (at 7:00 AM)
Average temperature yesterday: 50 °F

Past Weeks' High & Low Weather Summary

 TemperatureHumidityPressure
High65 °F (Mar 17, 3:00 PM)96% (Mar 25, 11:00 PM)30.33 "Hg (Mar 25, 11:00 PM)
Low35 °F (Mar 28, 6:00 AM)24% (Mar 16, 2:00 PM)29.50 "Hg (Mar 25, 1:00 PM)
Average49 °F64%30.01 "Hg
* Reported Mar 16 9:00 AM — Mar 31 10:00 AM, Vaduz, Weather by CustomWeather, © 2015

Note: Actual official high and low records may vary slightly from our data, if they occured in-between our weather recording intervals... More about our weather records

Advertising

Vaduz weather history for previous 24 hours

 ConditionsComfort  
Time TempWeatherWind HumidityBarometerVisibility
10:00 AM
Tue, Mar 31
49 °FCool.8 mph68%29.80 "HgN/A
9:00 AM47 °FCool.9 mph71%29.83 "HgN/A
8:00 AM46 °FFog.8 mph71%29.82 "Hg7 mi
7:00 AM45 °FQuite cool.15 mph77%29.83 "HgN/A
6:00 AM45 °FQuite cool.14 mph77%29.89 "HgN/A
4:00 AM43 °FQuite cool.15 mph80%29.98 "HgN/A
3:00 AM43 °FQuite cool.14 mph86%30.03 "HgN/A
2:00 AM43 °FRain. Overcast.10 mph85%30.03 "Hg5 mi
1:00 AM44 °FQuite cool.7 mph88%30.03 "HgN/A
12:00 AM46 °FCool.2 mph76%30.03 "HgN/A
11:00 PM
Mon, Mar 30
51 °FCool.9 mph51%30.00 "HgN/A
10:00 PM52 °FCool.14 mph47%29.99 "HgN/A
9:00 PM53 °FCool.20 mph47%29.96 "HgN/A
8:00 PM53 °FRain. Overcast.20 mph48%29.92 "Hg6 mi
7:00 PM53 °FCool.15 mph47%29.89 "HgN/A
6:00 PM53 °FCool.20 mph52%29.86 "HgN/A
5:00 PM53 °FFog.22 mph60%29.84 "Hg5 mi
4:00 PM56 °FRefreshingly cool.21 mph58%29.81 "HgN/A
3:00 PM53 °FCool.14 mph66%29.79 "HgN/A
2:00 PM54 °FRain. Overcast.22 mph64%29.74 "Hg4 mi
1:00 PM49 °FCool.6 mph87%29.75 "HgN/A
12:00 PM48 °FCool.6 mph83%29.74 "HgN/A
Weather by CustomWeather, © 2015

See weather overviewHow to use our weather pages